Voltar ao catálogo

CZ-4 DEB

AtivoSSO
NORAD 20798·DEBRIS·🇨🇳 China

Lançado Sep 3, 1990 de Taiyuan Satellite Launch Center

Loading…

Próximas Passagens (próximas 24 horas)

TLE

AtualizadoSource: Space-Track

Época: Sep 14, 2026, 09:13 UTC

1 20798U 90081H   26257.38429501  .00000543  00000-0  26441-3 0  9990
2 20798  98.7784 245.2631 0009885  55.1088 305.1018 14.22260350857374

Acompanhe CZ-4 DEB em tempo real com AllMySat

Download on the App Store